TimeEST,TemperatureF,Dew PointF,Humidity,Sea Level PressureIn,VisibilityMPH,Wind Direction,Wind SpeedMPH,Gust SpeedMPH,PrecipitationIn,Events,Conditions,WindDirDegrees,DateUTC
12:53 AM,45.0,43.0,93,29.95,10.0,Calm,Calm,-,N/A,,Overcast,0,2012-12-08 05:53:00
1:53 AM,46.9,45.0,93,29.95,10.0,Calm,Calm,-,N/A,,Overcast,0,2012-12-08 06:53:00
2:40 AM,46.4,44.6,93,29.99,10.0,Calm,Calm,-,N/A,,Overcast,0,2012-12-08 07:40:00
2:53 AM,46.9,45.0,93,29.95,10.0,Calm,Calm,-,N/A,,Overcast,0,2012-12-08 07:53:00
3:53 AM,46.9,45.0,93,29.94,10.0,Calm,Calm,-,N/A,,Overcast,0,2012-12-08 08:53:00
4:53 AM,46.9,45.0,93,29.95,10.0,Calm,Calm,-,N/A,,Overcast,0,2012-12-08 09:53:00
5:53 AM,46.9,45.0,93,29.96,9.0,Calm,Calm,-,N/A,,Overcast,0,2012-12-08 10:53:00
6:20 AM,48.2,46.4,93,30.00,10.0,Calm,Calm,-,0.00,Rain,Light Rain,0,2012-12-08 11:20:00
6:53 AM,48.0,46.0,93,29.98,10.0,Calm,Calm,-,0.00,,Overcast,0,2012-12-08 11:53:00
7:53 AM,48.0,46.0,93,29.99,8.0,Calm,Calm,-,N/A,,Overcast,0,2012-12-08 12:53:00
8:13 AM,48.2,46.4,93,30.01,8.0,Calm,Calm,-,N/A,,Overcast,0,2012-12-08 13:13:00
8:53 AM,48.9,46.9,93,29.99,9.0,Calm,Calm,-,N/A,,Overcast,0,2012-12-08 13:53:00
9:53 AM,52.0,48.0,86,30.01,10.0,Calm,Calm,-,N/A,,Mostly Cloudy,0,2012-12-08 14:53:00
10:05 AM,53.6,48.2,82,30.04,10.0,Calm,Calm,-,N/A,,Mostly Cloudy,0,2012-12-08 15:05:00
10:53 AM,54.0,48.9,83,30.00,10.0,Calm,Calm,-,N/A,,Overcast,0,2012-12-08 15:53:00
11:43 AM,55.4,50.0,82,30.02,10.0,Calm,Calm,-,N/A,,Overcast,0,2012-12-08 16:43:00
11:53 AM,57.9,50.0,75,29.98,10.0,Calm,Calm,-,N/A,,Overcast,0,2012-12-08 16:53:00
12:53 PM,62.1,52.0,70,29.94,10.0,SSW,4.6,-,N/A,,Mostly Cloudy,210,2012-12-08 17:53:00
1:53 PM,66.0,51.1,59,29.92,10.0,WSW,11.5,18.4,N/A,,Mostly Cloudy,240,2012-12-08 18:53:00
2:53 PM,64.9,51.1,61,29.92,10.0,WSW,6.9,-,N/A,,Partly Cloudy,250,2012-12-08 19:53:00
3:53 PM,66.0,50.0,56,29.92,10.0,WSW,6.9,-,N/A,,Scattered Clouds,250,2012-12-08 20:53:00
4:53 PM,63.0,50.0,63,29.92,10.0,WSW,4.6,-,N/A,,Scattered Clouds,240,2012-12-08 21:53:00
5:53 PM,57.0,50.0,77,29.94,10.0,Calm,Calm,-,N/A,,Scattered Clouds,0,2012-12-08 22:53:00
6:53 PM,55.9,50.0,80,29.96,10.0,NNW,3.5,-,N/A,,Scattered Clouds,330,2012-12-08 23:53:00
7:53 PM,55.0,48.9,80,29.97,10.0,Calm,Calm,-,N/A,,Overcast,0,2012-12-09 00:53:00
8:53 PM,52.0,48.0,86,29.98,10.0,Calm,Calm,-,N/A,,Mostly Cloudy,0,2012-12-09 01:53:00
9:53 PM,46.9,46.9,100,29.99,8.0,Calm,Calm,-,N/A,,Partly Cloudy,0,2012-12-09 02:53:00
10:53 PM,46.9,46.0,97,29.99,6.0,Calm,Calm,-,N/A,,Clear,0,2012-12-09 03:53:00
11:53 PM,46.0,45.0,96,30.00,7.0,Calm,Calm,-,N/A,,Scattered Clouds,0,2012-12-09 04:53:00